THOR ABLESTAR DEB, 327

Orbit data source: Space-Track

THOR ABLESTAR DEB, 327 is space debris in LEO originally from a launch on Thu, 29 Jun 1961 UTC launched from the Air Force Eastern Test Range (AFETR). Debris objects in space refer to the collection of defunct objects orbiting the Earth. Examples of debris include non-operational satellites, rocket bodies, and fragments generated from explosions, collisions, or faulty payload assembly.

Loading next visibility...
Identifier
327, 1961-015DD
Orbit
LEO
Country
Flag of USUS
Related business
Manufacturer
Unknown
Mission
Spacecraft
Bus & Motor
Unknown
Mass
Unknown
Launch date (UTC)
1961-06-29 (64 years ago)
Launch vehicle
Unknown
Launch site
Air Force Eastern Test Range (AFETR)
Object type
Payload
Rocket body
Debris
Shape & HBR
Unknown
Radar Cross Section
Small (<0.1 m²)

Expand to show TLE details & history
Last TLE update: 1 day ago

TLE from 1 day ago
0 THOR ABLESTAR DEB
1 00327U 61015DD  25260.23316316  .00000110  00000-0  14269-3 0  9992
2 00327  66.5449 341.4369 0118109 307.2598  51.7752 13.90715089248781
Epoch: 2025-09-17T05:35Z
TLE epoch observation values (Epoch: 2025-09-17T05:35:45.297Z)
Latitude
0.00002°
Longitude
-98.91388°
Altitude
875.434 km
Speed
7.442 km/s
True Right ascension
22h 45m 44s
True Declination
0° 00' 00"
Sunlit
Object was in full shadow at epoch
Visualization orbit readout
Latitude
Unknown
Longitude
Unknown
Altitude
Unknown
Speed
Unknown
Apparent Right ascension
Unknown
Apparent Declination
Unknown
Sunlit
N/A
Visualization observer readout
Local Sidereal Time
23:09:04
Azimuth
Unknown
Elevation
Unknown
Doppler factor
Unknown
Orbital elements
Apogee altitude
1,010.8 km
Perigee altitude
838.297 km
Semi-major axis
7,302.685 km
Eccentricity
0.01181
Inclination
66.5449°
RAAN
341.4369°
Arg. of periapsis
307.2598°
True anomaly
52.84818°
Mean anomaly
51.7752°
Eccentric anomaly
52.31071°
Mean motion
3.47792 °/min
Orbital period
103.51 mins
BSTAR
0.00014269
Loading maneuver chart data...
Computing Atmospheric mass density...

Documentation

Showing up to 5 results
|